Year,Month,Day,Hour,Minute,Value (Times are PST for windspeed in km/hr)
2006,05,08,00,00,5.70
2006,05,08,00,01,6.90
2006,05,08,00,02,7.10
2006,05,08,00,03,6.40
2006,05,08,00,04,4.90
2006,05,08,00,05,8.50
2006,05,08,00,06,5.90
2006,05,08,00,07,4.70
2006,05,08,00,08,4.00
2006,05,08,00,09,6.90
2006,05,08,00,10,2.40
2006,05,08,00,11,0.80
2006,05,08,00,12,4.90
2006,05,08,00,13,8.70
2006,05,08,00,14,4.60
2006,05,08,00,15,3.10
2006,05,08,00,16,7.00
2006,05,08,00,17,7.20
2006,05,08,00,18,14.50
2006,05,08,00,19,5.40
2006,05,08,00,20,4.20
2006,05,08,00,21,6.80
2006,05,08,00,22,5.30
2006,05,08,00,23,5.80
2006,05,08,00,24,6.40
2006,05,08,00,25,7.70
2006,05,08,00,26,6.10
2006,05,08,00,27,7.90
2006,05,08,00,28,4.90
2006,05,08,00,29,4.80
2006,05,08,00,30,7.00
2006,05,08,00,31,5.40
2006,05,08,00,32,7.00
2006,05,08,00,33,6.90
2006,05,08,00,34,4.90
2006,05,08,00,35,5.60
2006,05,08,00,36,8.10
2006,05,08,00,37,11.60
2006,05,08,00,38,9.50
2006,05,08,00,39,3.90
2006,05,08,00,40,4.70
2006,05,08,00,41,6.00
2006,05,08,00,42,8.50
2006,05,08,00,43,6.40
2006,05,08,00,44,6.20
2006,05,08,00,45,5.30
2006,05,08,00,46,3.70
2006,05,08,00,47,3.90
2006,05,08,00,48,2.70
2006,05,08,00,49,6.30
2006,05,08,00,50,4.20
2006,05,08,00,51,4.40
2006,05,08,00,52,5.30
2006,05,08,00,53,4.60
2006,05,08,00,54,4.00
2006,05,08,00,55,3.00
2006,05,08,00,56,4.80
2006,05,08,00,57,11.10
2006,05,08,00,58,5.50
2006,05,08,00,59,9.80
2006,05,08,01,00,9.30
2006,05,08,01,01,8.60
2006,05,08,01,02,6.80
2006,05,08,01,03,11.30
2006,05,08,01,04,9.80
2006,05,08,01,05,8.80
2006,05,08,01,06,12.10
2006,05,08,01,07,12.40
2006,05,08,01,08,10.90
2006,05,08,01,09,13.10
2006,05,08,01,10,10.50
2006,05,08,01,11,9.00
2006,05,08,01,12,8.50
2006,05,08,01,13,11.00
2006,05,08,01,14,11.00
2006,05,08,01,15,10.70
2006,05,08,01,16,8.90
2006,05,08,01,17,8.90
2006,05,08,01,18,12.40
2006,05,08,01,19,9.70
2006,05,08,01,20,11.60
2006,05,08,01,21,11.70
2006,05,08,01,22,10.90
2006,05,08,01,23,13.00
2006,05,08,01,24,10.50
2006,05,08,01,25,14.70
2006,05,08,01,26,10.70
2006,05,08,01,27,10.50
2006,05,08,01,28,9.70
2006,05,08,01,29,9.50
2006,05,08,01,30,9.50
2006,05,08,01,31,11.30
2006,05,08,01,32,11.50
2006,05,08,01,33,8.00
2006,05,08,01,34,4.90
2006,05,08,01,35,5.40
2006,05,08,01,36,7.60
2006,05,08,01,37,7.80
2006,05,08,01,38,7.20
2006,05,08,01,39,6.40
2006,05,08,01,40,7.40
2006,05,08,01,41,5.20
2006,05,08,01,42,4.60
2006,05,08,01,43,7.60
2006,05,08,01,44,5.40
2006,05,08,01,45,4.70
2006,05,08,01,46,3.70
2006,05,08,01,47,4.70
2006,05,08,01,48,5.20
2006,05,08,01,49,4.00
2006,05,08,01,50,6.80
2006,05,08,01,51,3.60
2006,05,08,01,52,4.10
2006,05,08,01,53,5.80
2006,05,08,01,54,4.10
2006,05,08,01,55,6.10
2006,05,08,01,56,9.20
2006,05,08,01,57,8.00
2006,05,08,01,58,7.30
2006,05,08,01,59,11.00
2006,05,08,02,00,5.80
2006,05,08,02,01,8.20
2006,05,08,02,02,8.10
2006,05,08,02,03,7.50
2006,05,08,02,04,5.90
2006,05,08,02,05,7.90
2006,05,08,02,06,5.80
2006,05,08,02,07,6.50
2006,05,08,02,08,8.50
2006,05,08,02,09,8.50
2006,05,08,02,10,9.40
2006,05,08,02,11,5.90
2006,05,08,02,12,6.10
2006,05,08,02,13,2.50
2006,05,08,02,14,1.80
2006,05,08,02,15,3.70
2006,05,08,02,16,3.00
2006,05,08,02,17,3.90
2006,05,08,02,18,1.00
2006,05,08,02,19,1.60
2006,05,08,02,20,3.10
2006,05,08,02,21,3.50
2006,05,08,02,22,3.10
2006,05,08,02,23,3.50
2006,05,08,02,24,3.20
2006,05,08,02,25,2.50
2006,05,08,02,26,3.90
2006,05,08,02,27,4.70
2006,05,08,02,28,4.00
2006,05,08,02,29,4.10
2006,05,08,02,30,5.40
2006,05,08,02,31,4.80
2006,05,08,02,32,3.40
2006,05,08,02,33,4.40
2006,05,08,02,34,6.10
2006,05,08,02,35,6.60
2006,05,08,02,36,4.10
2006,05,08,02,37,6.50
2006,05,08,02,38,6.50
2006,05,08,02,39,5.10
2006,05,08,02,40,4.10
2006,05,08,02,41,2.60
2006,05,08,02,42,2.80
2006,05,08,02,43,4.50
2006,05,08,02,44,4.10
2006,05,08,02,45,3.60
2006,05,08,02,46,6.70
2006,05,08,02,47,5.20
2006,05,08,02,48,5.40
2006,05,08,02,49,3.90
2006,05,08,02,50,2.70
2006,05,08,02,51,4.20
2006,05,08,02,52,4.10
2006,05,08,02,53,5.70
2006,05,08,02,54,9.30
2006,05,08,02,55,6.30
2006,05,08,02,56,5.30
2006,05,08,02,57,3.60
2006,05,08,02,58,2.50
2006,05,08,02,59,3.90
2006,05,08,03,00,4.00
2006,05,08,03,01,5.10
2006,05,08,03,02,6.60
2006,05,08,03,03,4.10
2006,05,08,03,04,3.90
2006,05,08,03,05,3.00
2006,05,08,03,06,3.00
2006,05,08,03,07,2.80
2006,05,08,03,08,2.10
2006,05,08,03,09,0.70
2006,05,08,03,10,1.10
2006,05,08,03,11,3.00
2006,05,08,03,12,3.40
2006,05,08,03,13,3.00
2006,05,08,03,14,3.90
2006,05,08,03,15,5.20
2006,05,08,03,16,7.80
2006,05,08,03,17,5.10
2006,05,08,03,18,4.90
2006,05,08,03,19,4.20
2006,05,08,03,20,1.80
2006,05,08,03,21,2.60
2006,05,08,03,22,3.00
2006,05,08,03,23,5.90
2006,05,08,03,24,5.10
2006,05,08,03,25,4.10
2006,05,08,03,26,3.60
2006,05,08,03,27,5.60
2006,05,08,03,28,3.90
2006,05,08,03,29,0.60
2006,05,08,03,30,0.00
2006,05,08,03,31,5.70
2006,05,08,03,32,6.40
2006,05,08,03,33,3.90
2006,05,08,03,34,3.40
2006,05,08,03,35,3.50
2006,05,08,03,36,4.90
2006,05,08,03,37,4.10
2006,05,08,03,38,6.00
2006,05,08,03,39,7.40
2006,05,08,03,40,6.50
2006,05,08,03,41,3.00
2006,05,08,03,42,5.90
2006,05,08,03,43,4.10
2006,05,08,03,44,1.20
2006,05,08,03,45,0.00
2006,05,08,03,46,1.20
2006,05,08,03,47,2.10
2006,05,08,03,48,2.00
2006,05,08,03,49,0.10
2006,05,08,03,50,1.70
2006,05,08,03,51,2.30
2006,05,08,03,52,4.10
2006,05,08,03,53,4.90
2006,05,08,03,54,2.70
2006,05,08,03,55,5.40
2006,05,08,03,56,1.80
2006,05,08,03,57,1.80
2006,05,08,03,58,3.60
2006,05,08,03,59,0.30
2006,05,08,04,00,3.00
2006,05,08,04,01,4.70
2006,05,08,04,02,5.50
2006,05,08,04,03,1.10
2006,05,08,04,04,1.50
2006,05,08,04,05,0.60
2006,05,08,04,06,0.10
2006,05,08,04,07,1.00
2006,05,08,04,08,2.20
2006,05,08,04,09,0.60
2006,05,08,04,10,3.30
2006,05,08,04,11,1.50
2006,05,08,04,12,4.70
2006,05,08,04,13,6.40
2006,05,08,04,14,4.70
2006,05,08,04,15,0.90
2006,05,08,04,16,4.80
2006,05,08,04,17,1.70
2006,05,08,04,18,4.10
2006,05,08,04,19,2.90
2006,05,08,04,20,5.00
2006,05,08,04,21,6.80
2006,05,08,04,22,6.60
2006,05,08,04,23,4.20
2006,05,08,04,24,7.50
2006,05,08,04,25,5.00
2006,05,08,04,26,3.80
2006,05,08,04,27,4.70
2006,05,08,04,28,6.10
2006,05,08,04,29,7.30
2006,05,08,04,30,6.80
2006,05,08,04,31,8.70
2006,05,08,04,32,6.50
2006,05,08,04,33,8.90
2006,05,08,04,34,10.60
2006,05,08,04,35,8.80
2006,05,08,04,36,11.30
2006,05,08,04,37,11.00
2006,05,08,04,38,8.40
2006,05,08,04,39,11.80
2006,05,08,04,40,9.20
2006,05,08,04,41,7.90
2006,05,08,04,42,6.90
2006,05,08,04,43,6.10
2006,05,08,04,44,5.00
2006,05,08,04,45,5.10
2006,05,08,04,46,8.10
2006,05,08,04,47,7.20
2006,05,08,04,48,7.60
2006,05,08,04,49,7.60
2006,05,08,04,50,3.20
2006,05,08,04,51,3.40
2006,05,08,04,52,3.80
2006,05,08,04,53,3.50
2006,05,08,04,54,2.80
2006,05,08,04,55,4.00
2006,05,08,04,56,5.60
2006,05,08,04,57,3.30
2006,05,08,04,58,2.60
2006,05,08,04,59,4.40
2006,05,08,05,00,2.20
2006,05,08,05,01,1.50
2006,05,08,05,02,3.80
2006,05,08,05,03,4.20
2006,05,08,05,04,8.40
2006,05,08,05,05,4.70
2006,05,08,05,06,5.20
2006,05,08,05,07,3.10
2006,05,08,05,08,7.80
2006,05,08,05,09,8.10
2006,05,08,05,10,6.50
2006,05,08,05,11,7.20
2006,05,08,05,12,4.90
2006,05,08,05,13,3.60
2006,05,08,05,14,7.60
2006,05,08,05,15,3.40
2006,05,08,05,16,3.90
2006,05,08,05,17,4.90
2006,05,08,05,18,5.00
2006,05,08,05,19,2.00
2006,05,08,05,20,3.50
2006,05,08,05,21,5.10
2006,05,08,05,22,7.80
2006,05,08,05,23,6.40
2006,05,08,05,24,4.40
2006,05,08,05,25,3.20
2006,05,08,05,26,4.40
2006,05,08,05,27,3.10
2006,05,08,05,28,2.20
2006,05,08,05,29,3.00
2006,05,08,05,30,5.90
2006,05,08,05,31,3.70
2006,05,08,05,32,3.40
2006,05,08,05,33,3.00
2006,05,08,05,34,3.50
2006,05,08,05,35,2.50
2006,05,08,05,36,1.70
2006,05,08,05,37,2.60
2006,05,08,05,38,3.60
2006,05,08,05,39,2.00
2006,05,08,05,40,1.20
2006,05,08,05,41,0.70
2006,05,08,05,42,3.90
2006,05,08,05,43,3.10
2006,05,08,05,44,1.40
2006,05,08,05,45,1.10
2006,05,08,05,46,3.10
2006,05,08,05,47,4.10
2006,05,08,05,48,3.00
2006,05,08,05,49,1.50
2006,05,08,05,50,1.50
2006,05,08,05,51,0.00
2006,05,08,05,52,0.20
2006,05,08,05,53,0.90
2006,05,08,05,54,0.90
2006,05,08,05,55,0.90
2006,05,08,05,56,3.50
2006,05,08,05,57,3.80
2006,05,08,05,58,3.60
2006,05,08,05,59,3.50
2006,05,08,06,00,4.80
2006,05,08,06,01,1.80
2006,05,08,06,02,4.70
2006,05,08,06,03,6.00
2006,05,08,06,04,6.30
2006,05,08,06,05,5.30
2006,05,08,06,06,5.60
2006,05,08,06,07,6.10
2006,05,08,06,08,8.60
2006,05,08,06,09,4.70
2006,05,08,06,10,6.90
2006,05,08,06,11,3.70
2006,05,08,06,12,5.80
2006,05,08,06,13,5.70
2006,05,08,06,14,3.10
2006,05,08,06,15,3.50
2006,05,08,06,16,3.40
2006,05,08,06,17,2.90
2006,05,08,06,18,4.40
2006,05,08,06,19,2.70
2006,05,08,06,20,2.90
2006,05,08,06,21,2.30
2006,05,08,06,22,4.10
2006,05,08,06,23,2.40
2006,05,08,06,24,2.00
2006,05,08,06,25,1.40
2006,05,08,06,26,0.20
2006,05,08,06,27,3.20
2006,05,08,06,28,1.10
2006,05,08,06,29,0.40
2006,05,08,06,30,1.80
2006,05,08,06,31,3.60
2006,05,08,06,32,4.50
2006,05,08,06,33,2.30
2006,05,08,06,34,0.00
2006,05,08,06,35,1.20
2006,05,08,06,36,0.40
2006,05,08,06,37,1.20
2006,05,08,06,38,3.90
2006,05,08,06,39,5.60
2006,05,08,06,40,4.10
2006,05,08,06,41,4.60
2006,05,08,06,42,5.00
2006,05,08,06,43,4.90
2006,05,08,06,44,2.70
2006,05,08,06,45,3.90
2006,05,08,06,46,4.30
2006,05,08,06,47,0.40
2006,05,08,06,48,1.80
2006,05,08,06,49,4.70
2006,05,08,06,50,7.50
2006,05,08,06,51,4.40
2006,05,08,06,52,3.50
2006,05,08,06,53,6.30
2006,05,08,06,54,3.10
2006,05,08,06,55,2.20
2006,05,08,06,56,1.50
2006,05,08,06,57,2.30
2006,05,08,06,58,3.80
2006,05,08,06,59,4.10
2006,05,08,07,00,4.40
2006,05,08,07,01,2.60
2006,05,08,07,02,4.10
2006,05,08,07,03,4.50
2006,05,08,07,04,4.00
2006,05,08,07,05,4.00
2006,05,08,07,06,0.20
2006,05,08,07,07,0.40
2006,05,08,07,08,1.50
2006,05,08,07,09,0.20
2006,05,08,07,10,0.30
2006,05,08,07,11,0.70
2006,05,08,07,12,2.20
2006,05,08,07,13,1.20
2006,05,08,07,14,4.30
2006,05,08,07,15,5.30
2006,05,08,07,16,4.20
2006,05,08,07,17,2.90
2006,05,08,07,18,1.10
2006,05,08,07,19,0.20
2006,05,08,07,20,2.20
2006,05,08,07,21,1.10
2006,05,08,07,22,2.10
2006,05,08,07,23,2.30
2006,05,08,07,24,3.90
2006,05,08,07,25,4.10
2006,05,08,07,26,3.50
2006,05,08,07,27,3.50
2006,05,08,07,28,1.50
2006,05,08,07,29,3.20
2006,05,08,07,30,3.70
2006,05,08,07,31,2.30
2006,05,08,07,32,2.00
2006,05,08,07,33,2.90
2006,05,08,07,34,2.10
2006,05,08,07,35,1.20
2006,05,08,07,36,2.60
2006,05,08,07,37,0.30
2006,05,08,07,38,0.10
2006,05,08,07,39,0.10
2006,05,08,07,40,0.20
2006,05,08,07,41,0.40
2006,05,08,07,42,1.70
2006,05,08,07,43,3.40
2006,05,08,07,44,1.30
2006,05,08,07,45,0.80
2006,05,08,07,46,2.60
2006,05,08,07,47,3.50
2006,05,08,07,48,3.30
2006,05,08,07,49,0.00
2006,05,08,07,50,0.20
2006,05,08,07,51,0.60
2006,05,08,07,52,0.30
2006,05,08,07,53,2.30
2006,05,08,07,54,3.00
2006,05,08,07,55,1.90
2006,05,08,07,56,2.30
2006,05,08,07,57,4.70
2006,05,08,07,58,2.60
2006,05,08,07,59,1.20
2006,05,08,08,00,4.70
2006,05,08,08,01,5.80
2006,05,08,08,02,4.80
2006,05,08,08,03,4.80
2006,05,08,08,04,2.70
2006,05,08,08,05,6.10
2006,05,08,08,06,4.30
2006,05,08,08,07,4.00
2006,05,08,08,08,2.60
2006,05,08,08,09,1.00
2006,05,08,08,10,0.20
2006,05,08,08,11,6.00
2006,05,08,08,12,4.70
2006,05,08,08,13,5.30
2006,05,08,08,14,5.10
2006,05,08,08,15,3.90
2006,05,08,08,16,1.10
2006,05,08,08,17,0.80
2006,05,08,08,18,0.50
2006,05,08,08,19,1.60
2006,05,08,08,20,3.70
2006,05,08,08,21,1.60
2006,05,08,08,22,2.50
2006,05,08,08,23,1.80
2006,05,08,08,24,1.90
2006,05,08,08,25,3.30
2006,05,08,08,26,4.60
2006,05,08,08,27,7.50
2006,05,08,08,28,4.30
2006,05,08,08,29,4.70
2006,05,08,08,30,5.50
2006,05,08,08,31,3.50
2006,05,08,08,32,1.40
2006,05,08,08,33,1.00
2006,05,08,08,34,3.10
2006,05,08,08,35,2.10
2006,05,08,08,36,3.60
2006,05,08,08,37,1.50
2006,05,08,08,38,1.40
2006,05,08,08,39,2.70
2006,05,08,08,40,4.10
2006,05,08,08,41,6.80
2006,05,08,08,42,6.40
2006,05,08,08,43,6.00
2006,05,08,08,44,5.50
2006,05,08,08,45,6.50
2006,05,08,08,46,8.10
2006,05,08,08,47,6.30
2006,05,08,08,48,7.00
2006,05,08,08,49,6.30
2006,05,08,08,50,6.20
2006,05,08,08,51,6.30
2006,05,08,08,52,7.80
2006,05,08,08,53,4.90
2006,05,08,08,54,1.20
2006,05,08,08,55,2.30
2006,05,08,08,56,2.20
2006,05,08,08,57,4.00
2006,05,08,08,58,3.00
2006,05,08,08,59,2.20
2006,05,08,09,00,8.10
2006,05,08,09,01,5.70
2006,05,08,09,02,3.80
2006,05,08,09,03,4.70
2006,05,08,09,04,8.50
2006,05,08,09,05,7.90
2006,05,08,09,06,4.00
2006,05,08,09,07,6.70
2006,05,08,09,08,7.90
2006,05,08,09,09,5.90
2006,05,08,09,10,1.30
2006,05,08,09,11,1.90
2006,05,08,09,12,5.30
2006,05,08,09,13,4.20
2006,05,08,09,14,4.30
2006,05,08,09,15,4.70
2006,05,08,09,16,5.70
2006,05,08,09,17,1.10
2006,05,08,09,18,1.10
2006,05,08,09,19,0.00
2006,05,08,09,20,1.70
2006,05,08,09,21,5.60
2006,05,08,09,22,3.00
2006,05,08,09,23,9.00
2006,05,08,09,24,8.50
2006,05,08,09,25,7.50
2006,05,08,09,26,5.00
2006,05,08,09,27,4.30
2006,05,08,09,28,1.00
2006,05,08,09,29,3.10
2006,05,08,09,30,6.50
2006,05,08,09,31,5.20
2006,05,08,09,32,7.00
2006,05,08,09,33,3.90
2006,05,08,09,34,3.00
2006,05,08,09,35,5.20
2006,05,08,09,36,4.40
2006,05,08,09,37,3.70
2006,05,08,09,38,5.40
2006,05,08,09,39,2.10
2006,05,08,09,40,3.00
2006,05,08,09,41,2.30
2006,05,08,09,42,5.80
2006,05,08,09,43,4.30
2006,05,08,09,44,5.50
2006,05,08,09,45,3.40
2006,05,08,09,46,6.40
2006,05,08,09,47,3.10
2006,05,08,09,48,3.00
2006,05,08,09,49,3.60
2006,05,08,09,50,2.70
2006,05,08,09,51,2.30
2006,05,08,09,52,1.60
2006,05,08,09,53,0.10
2006,05,08,09,54,0.10
2006,05,08,09,55,3.60
2006,05,08,09,56,5.30
2006,05,08,09,57,9.50
2006,05,08,09,58,6.20
2006,05,08,09,59,5.10
2006,05,08,10,00,8.70
2006,05,08,10,01,7.60
2006,05,08,10,02,8.60
2006,05,08,10,03,17.10
2006,05,08,10,04,12.70
2006,05,08,10,05,12.40
2006,05,08,10,06,13.00
2006,05,08,10,07,8.90
2006,05,08,10,08,5.80
2006,05,08,10,09,8.50
2006,05,08,10,10,6.20
2006,05,08,10,11,6.50
2006,05,08,10,12,6.40
2006,05,08,10,13,4.00
2006,05,08,10,14,6.00
2006,05,08,10,15,7.60
2006,05,08,10,16,7.00
2006,05,08,10,17,11.40
2006,05,08,10,18,7.60
2006,05,08,10,19,8.90
2006,05,08,10,20,9.70
2006,05,08,10,21,8.50
2006,05,08,10,22,4.20
2006,05,08,10,23,3.50
2006,05,08,10,24,10.30
2006,05,08,10,25,7.70
2006,05,08,10,26,10.10
2006,05,08,10,27,8.50
2006,05,08,10,28,10.90
2006,05,08,10,29,8.50
2006,05,08,10,30,10.70
2006,05,08,10,31,11.80
2006,05,08,10,32,8.50
2006,05,08,10,33,8.30
2006,05,08,10,34,8.90
2006,05,08,10,35,10.80
2006,05,08,10,36,11.20
2006,05,08,10,37,11.80
2006,05,08,10,38,11.10
2006,05,08,10,39,3.80
2006,05,08,10,40,6.30
2006,05,08,10,41,5.40
2006,05,08,10,42,5.60
2006,05,08,10,43,7.20
2006,05,08,10,44,4.80
2006,05,08,10,45,17.60
2006,05,08,10,46,15.00
2006,05,08,10,47,12.40
2006,05,08,10,48,13.00
2006,05,08,10,49,16.10
2006,05,08,10,50,15.80
2006,05,08,10,51,9.60
2006,05,08,10,52,9.00
2006,05,08,10,53,8.20
2006,05,08,10,54,7.50
2006,05,08,10,55,10.70
2006,05,08,10,56,13.10
2006,05,08,10,57,10.10
2006,05,08,10,58,10.50
2006,05,08,10,59,15.20
2006,05,08,11,00,8.50
2006,05,08,11,01,7.20
2006,05,08,11,02,8.40
2006,05,08,11,03,6.60
2006,05,08,11,04,7.20
2006,05,08,11,05,7.80
2006,05,08,11,06,8.90
2006,05,08,11,07,14.60
2006,05,08,11,08,13.60
2006,05,08,11,09,15.70
2006,05,08,11,10,7.40
2006,05,08,11,11,6.60
2006,05,08,11,12,5.20
2006,05,08,11,13,1.80
2006,05,08,11,14,8.00
2006,05,08,11,15,13.20
2006,05,08,11,16,14.10
2006,05,08,11,17,13.00
2006,05,08,11,18,11.30
2006,05,08,11,19,12.00
2006,05,08,11,20,11.40
2006,05,08,11,21,6.30
2006,05,08,11,22,10.80
2006,05,08,11,23,14.20
2006,05,08,11,24,13.50
2006,05,08,11,25,10.50
2006,05,08,11,26,10.20
2006,05,08,11,27,14.80
2006,05,08,11,28,9.00
2006,05,08,11,29,8.10
2006,05,08,11,30,13.10
2006,05,08,11,31,11.10
2006,05,08,11,32,13.40
2006,05,08,11,33,10.30
2006,05,08,11,34,14.50
2006,05,08,11,35,14.00
2006,05,08,11,36,14.50
2006,05,08,11,37,9.70
2006,05,08,11,38,7.50
2006,05,08,11,39,12.50
2006,05,08,11,40,10.10
2006,05,08,11,41,7.50
2006,05,08,11,42,12.40
2006,05,08,11,43,11.10
2006,05,08,11,44,13.10
2006,05,08,11,45,11.20
2006,05,08,11,46,11.50
2006,05,08,11,47,14.50
2006,05,08,11,48,14.10
2006,05,08,11,49,14.20
2006,05,08,11,50,11.40
2006,05,08,11,51,15.00
2006,05,08,11,52,14.00
2006,05,08,11,53,11.20
2006,05,08,11,54,12.70
2006,05,08,11,55,9.20
2006,05,08,11,56,6.40
2006,05,08,11,57,10.70
2006,05,08,11,58,14.20
2006,05,08,11,59,17.60
2006,05,08,12,00,19.00
2006,05,08,12,01,16.80
2006,05,08,12,02,19.80
2006,05,08,12,03,15.50
2006,05,08,12,04,15.10
2006,05,08,12,05,16.30
2006,05,08,12,06,14.90
2006,05,08,12,07,16.10
2006,05,08,12,08,15.70
2006,05,08,12,09,16.70
2006,05,08,12,10,16.80
2006,05,08,12,11,18.50
2006,05,08,12,12,15.30
2006,05,08,12,13,16.70
2006,05,08,12,14,16.40
2006,05,08,12,15,14.60
2006,05,08,12,16,14.50
2006,05,08,12,17,14.20
2006,05,08,12,18,17.60
2006,05,08,12,19,21.70
2006,05,08,12,20,22.50
2006,05,08,12,21,10.70
2006,05,08,12,22,21.70
2006,05,08,12,23,18.50
2006,05,08,12,24,15.30
2006,05,08,12,25,19.80
2006,05,08,12,26,14.50
2006,05,08,12,27,16.10
2006,05,08,12,28,17.70
2006,05,08,12,29,17.00
2006,05,08,12,30,11.00
2006,05,08,12,31,12.20
2006,05,08,12,32,13.20
2006,05,08,12,33,9.40
2006,05,08,12,34,12.60
2006,05,08,12,35,12.40
2006,05,08,12,36,10.60
2006,05,08,12,37,10.80
2006,05,08,12,38,8.70
2006,05,08,12,39,8.90
2006,05,08,12,40,13.40
2006,05,08,12,41,10.90
2006,05,08,12,42,15.10
2006,05,08,12,43,15.90
2006,05,08,12,44,15.20
2006,05,08,12,45,17.30
2006,05,08,12,46,16.10
2006,05,08,12,47,13.60
2006,05,08,12,48,14.10
2006,05,08,12,49,15.80
2006,05,08,12,50,17.00
2006,05,08,12,51,12.20
2006,05,08,12,52,12.90
2006,05,08,12,53,18.10
2006,05,08,12,54,17.90
2006,05,08,12,55,16.30
2006,05,08,12,56,17.00
2006,05,08,12,57,19.00
2006,05,08,12,58,23.50
2006,05,08,12,59,24.10
2006,05,08,13,00,18.90
2006,05,08,13,01,18.40
2006,05,08,13,02,16.30
2006,05,08,13,03,20.10
2006,05,08,13,04,11.90
2006,05,08,13,05,14.90
2006,05,08,13,06,16.40
2006,05,08,13,07,6.90
2006,05,08,13,08,10.20
2006,05,08,13,09,15.00
2006,05,08,13,10,14.20
2006,05,08,13,11,16.40
2006,05,08,13,12,15.50
2006,05,08,13,13,17.10
2006,05,08,13,14,12.10
2006,05,08,13,15,16.70
2006,05,08,13,16,17.20
2006,05,08,13,17,13.80
2006,05,08,13,18,12.70
2006,05,08,13,19,13.00
2006,05,08,13,20,10.30
2006,05,08,13,21,7.60
2006,05,08,13,22,9.60
2006,05,08,13,23,6.00
2006,05,08,13,24,7.90
2006,05,08,13,25,9.60
2006,05,08,13,26,10.30
2006,05,08,13,27,11.90
2006,05,08,13,28,13.20
2006,05,08,13,29,8.50
2006,05,08,13,30,7.70
2006,05,08,13,31,6.70
2006,05,08,13,32,9.40
2006,05,08,13,33,7.20
2006,05,08,13,34,3.90
2006,05,08,13,35,4.20
2006,05,08,13,36,2.50
2006,05,08,13,37,2.40
2006,05,08,13,38,0.20
2006,05,08,13,39,6.40
2006,05,08,13,40,7.70
2006,05,08,13,41,7.90
2006,05,08,13,42,8.40
2006,05,08,13,43,6.90
2006,05,08,13,44,6.70
2006,05,08,13,45,6.00
2006,05,08,13,46,12.20
2006,05,08,13,47,15.90
2006,05,08,13,48,13.80
2006,05,08,13,49,10.70
2006,05,08,13,50,8.60
2006,05,08,13,51,7.10
2006,05,08,13,52,6.40
2006,05,08,13,53,5.30
2006,05,08,13,54,6.00
2006,05,08,13,55,8.20
2006,05,08,13,56,8.70
2006,05,08,13,57,5.90
2006,05,08,13,58,5.10
2006,05,08,13,59,5.50
2006,05,08,14,00,6.30
2006,05,08,14,01,3.10
2006,05,08,14,02,2.90
2006,05,08,14,03,3.30
2006,05,08,14,04,1.00
2006,05,08,14,05,2.50
2006,05,08,14,06,1.60
2006,05,08,14,07,1.90
2006,05,08,14,08,5.10
2006,05,08,14,09,2.00
2006,05,08,14,10,1.20
2006,05,08,14,11,3.00
2006,05,08,14,12,4.30
2006,05,08,14,13,2.80
2006,05,08,14,14,15.70
2006,05,08,14,15,9.40
2006,05,08,14,16,3.10
2006,05,08,14,17,7.60
2006,05,08,14,18,6.60
2006,05,08,14,19,5.20
2006,05,08,14,20,6.40
2006,05,08,14,21,5.00
2006,05,08,14,22,7.10
2006,05,08,14,23,4.60
2006,05,08,14,24,6.10
2006,05,08,14,25,11.30
2006,05,08,14,26,7.00
2006,05,08,14,27,6.50
2006,05,08,14,28,5.10
2006,05,08,14,29,7.60
2006,05,08,14,30,6.10
2006,05,08,14,31,7.50
2006,05,08,14,32,8.60
2006,05,08,14,33,8.60
2006,05,08,14,34,9.70
2006,05,08,14,35,8.60
2006,05,08,14,36,13.20
2006,05,08,14,37,14.00
2006,05,08,14,38,13.00
2006,05,08,14,39,6.40
2006,05,08,14,40,6.40
2006,05,08,14,41,6.40
2006,05,08,14,42,15.40
2006,05,08,14,43,14.10
2006,05,08,14,44,14.60
2006,05,08,14,45,13.10
2006,05,08,14,46,15.20
2006,05,08,14,47,20.10
2006,05,08,14,48,11.90
2006,05,08,14,49,12.60
2006,05,08,14,50,10.70
2006,05,08,14,51,13.60
2006,05,08,14,52,11.50
2006,05,08,14,53,12.70
2006,05,08,14,54,6.40
2006,05,08,14,55,6.40
2006,05,08,14,56,7.40
2006,05,08,14,57,7.60
2006,05,08,14,58,8.90
2006,05,08,14,59,10.80
2006,05,08,15,00,11.00
2006,05,08,15,01,15.10
2006,05,08,15,02,12.80
2006,05,08,15,03,11.80
2006,05,08,15,04,8.30
2006,05,08,15,05,11.00
2006,05,08,15,06,8.80
2006,05,08,15,07,12.90
2006,05,08,15,08,6.60
2006,05,08,15,09,7.90
2006,05,08,15,10,9.20
2006,05,08,15,11,6.30
2006,05,08,15,12,7.90
2006,05,08,15,13,13.90
2006,05,08,15,14,14.90
2006,05,08,15,15,12.30
2006,05,08,15,16,8.90
2006,05,08,15,17,9.90
2006,05,08,15,18,10.20
2006,05,08,15,19,14.30
2006,05,08,15,20,7.10
2006,05,08,15,21,7.70
2006,05,08,15,22,4.60
2006,05,08,15,23,4.90
2006,05,08,15,24,9.20
2006,05,08,15,25,11.40
2006,05,08,15,26,12.10
2006,05,08,15,27,12.60
2006,05,08,15,28,8.00
2006,05,08,15,29,8.80
2006,05,08,15,30,11.20
2006,05,08,15,31,9.00
2006,05,08,15,32,9.90
2006,05,08,15,33,7.70
2006,05,08,15,34,6.20
2006,05,08,15,35,11.70
2006,05,08,15,36,13.40
2006,05,08,15,37,15.20
2006,05,08,15,38,10.10
2006,05,08,15,39,10.80
2006,05,08,15,40,12.40
2006,05,08,15,41,9.20
2006,05,08,15,42,5.30
2006,05,08,15,43,5.90
2006,05,08,15,44,4.80
2006,05,08,15,45,7.20
2006,05,08,15,46,1.20
2006,05,08,15,47,6.10
2006,05,08,15,48,12.50
2006,05,08,15,49,6.80
2006,05,08,15,50,6.90
2006,05,08,15,51,6.20
2006,05,08,15,52,7.50
2006,05,08,15,53,7.20
2006,05,08,15,54,5.00
2006,05,08,15,55,5.00
2006,05,08,15,56,3.60
2006,05,08,15,57,6.70
2006,05,08,15,58,8.60
2006,05,08,15,59,14.60
2006,05,08,16,00,13.00
2006,05,08,16,01,10.80
2006,05,08,16,02,9.20
2006,05,08,16,03,9.70
2006,05,08,16,04,7.50
2006,05,08,16,05,6.40
2006,05,08,16,06,6.20
2006,05,08,16,07,6.00
2006,05,08,16,08,9.10
2006,05,08,16,09,9.20
2006,05,08,16,10,11.90
2006,05,08,16,11,7.40
2006,05,08,16,12,9.30
2006,05,08,16,13,5.60
2006,05,08,16,14,5.40
2006,05,08,16,15,5.10
2006,05,08,16,16,6.00
2006,05,08,16,17,6.80
2006,05,08,16,18,9.30
2006,05,08,16,19,6.90
2006,05,08,16,20,7.10
2006,05,08,16,21,10.30
2006,05,08,16,22,15.00
2006,05,08,16,23,8.90
2006,05,08,16,24,3.50
2006,05,08,16,25,4.70
2006,05,08,16,26,5.20
2006,05,08,16,27,7.60
2006,05,08,16,28,12.00
2006,05,08,16,29,8.10
2006,05,08,16,30,9.60
2006,05,08,16,31,9.70
2006,05,08,16,32,10.70
2006,05,08,16,33,9.10
2006,05,08,16,34,8.70
2006,05,08,16,35,12.50
2006,05,08,16,36,13.70
2006,05,08,16,37,9.70
2006,05,08,16,38,9.50
2006,05,08,16,39,13.30
2006,05,08,16,40,10.30
2006,05,08,16,41,13.50
2006,05,08,16,42,8.40
2006,05,08,16,43,10.50
2006,05,08,16,44,12.00
2006,05,08,16,45,9.30
2006,05,08,16,46,8.40
2006,05,08,16,47,8.10
2006,05,08,16,48,17.70
2006,05,08,16,49,14.90
2006,05,08,16,50,13.00
2006,05,08,16,51,13.40
2006,05,08,16,52,10.90
2006,05,08,16,53,11.40
2006,05,08,16,54,13.30
2006,05,08,16,55,16.10
2006,05,08,16,56,16.10
2006,05,08,16,57,9.10
2006,05,08,16,58,12.30
2006,05,08,16,59,9.70
2006,05,08,17,00,6.10
2006,05,08,17,01,11.90
2006,05,08,17,02,9.30
2006,05,08,17,03,9.30
2006,05,08,17,04,13.30
2006,05,08,17,05,10.30
2006,05,08,17,06,11.70
2006,05,08,17,07,12.60
2006,05,08,17,08,14.70
2006,05,08,17,09,13.40
2006,05,08,17,10,9.10
2006,05,08,17,11,12.60
2006,05,08,17,12,7.50
2006,05,08,17,13,7.20
2006,05,08,17,14,11.30
2006,05,08,17,15,9.70
2006,05,08,17,16,9.20
2006,05,08,17,17,7.10
2006,05,08,17,18,6.00
2006,05,08,17,19,5.70
2006,05,08,17,20,7.20
2006,05,08,17,21,5.60
2006,05,08,17,22,6.50
2006,05,08,17,23,5.80
2006,05,08,17,24,7.50
2006,05,08,17,25,9.90
2006,05,08,17,26,10.70
2006,05,08,17,27,10.60
2006,05,08,17,28,6.20
2006,05,08,17,29,6.40
2006,05,08,17,30,10.20
2006,05,08,17,31,9.60
2006,05,08,17,32,11.80
2006,05,08,17,33,11.30
2006,05,08,17,34,12.70
2006,05,08,17,35,9.20
2006,05,08,17,36,12.40
2006,05,08,17,37,9.60
2006,05,08,17,38,7.30
2006,05,08,17,39,9.40
2006,05,08,17,40,11.70
2006,05,08,17,41,9.90
2006,05,08,17,42,10.50
2006,05,08,17,43,9.40
2006,05,08,17,44,11.30
2006,05,08,17,45,11.10
2006,05,08,17,46,8.20
2006,05,08,17,47,8.00
2006,05,08,17,48,7.60
2006,05,08,17,49,6.50
2006,05,08,17,50,9.70
2006,05,08,17,51,13.40
2006,05,08,17,52,10.10
2006,05,08,17,53,10.70
2006,05,08,17,54,12.20